Location: Asheville, NC
(35.6000°N, 82.5500°W)
Time: 17:30:43

FO-29 - Pass Details

Date: 13 March 2018
Orbit: 800 x 1321 km, 98.5° (Epoch: 19 March)

Event Time Altitude Azimuth Distance (km) Brightness Sun altitude
Rises 20:17:08 0° 24° (NNE) 4,063 12.5 -9.2°
Reaches altitude 10° 20:20:00 10° 34° (NNE) 3,163 11.9 -9.7°
Maximum altitude 20:26:34 34° 96° (E) 1,982 10.6 -11.1°
Drops below altitude 10° 20:33:26 10° 158° (SSE) 3,331 12.0 -12.5°
Sets 20:36:31 0° 167° (SSE) 4,306 12.7 -13.1°
